This is the latest recevied weather packets stored in our database for station/object AD8BV. If no packets are shown the sender has not sent any weather packets the latest 10 day(s).
| Time | Temp. | Humidity | Pressure | Rain* | Wind** | Luminosity | Snow |
|---|---|---|---|---|---|---|---|
| 1777923779 | 24.44° C | 42% | 1002.4 hPa | 0 mm | - | 657 W/m² | - |
| 1777923475 | 24.44° C | 41% | 1002.3 hPa | 0 mm | - | 178 W/m² | - |
| 1777923173 | 24.44° C | 43% | 1002.6 hPa | 0 mm | - | 634 W/m² | - |
| 1777922871 | 24.44° C | 39% | 1002.4 hPa | 0 mm | - | 641 W/m² | - |
| 1777922569 | 25° C | 39% | 1002.5 hPa | 0 mm | - | 652 W/m² | - |
| 1777922267 | 25° C | 39% | 1002.4 hPa | 0 mm | - | 640 W/m² | - |
| 1777921964 | 25° C | 38% | 1002.4 hPa | 0 mm | - | 619 W/m² | - |
| 1777921659 | 25° C | 40% | 1002.3 hPa | 0 mm | - | 552 W/m² | - |
| 1777921356 | 25° C | 39% | 1002.6 hPa | 0 mm | - | 666 W/m² | - |
| 1777921052 | 25° C | 37% | 1002.3 hPa | 0 mm | - | 685 W/m² | - |
| 1777920749 | 24.44° C | 38% | 1002.5 hPa | 0 mm | - | 690 W/m² | - |
| 1777920445 | 24.44° C | 40% | 1002.7 hPa | 0 mm | - | 663 W/m² | - |
| 1777920141 | 25° C | 41% | 1003 hPa | 0 mm | - | 672 W/m² | - |
| 1777919837 | 24.44° C | 36% | 1002.8 hPa | 0 mm | - | 665 W/m² | - |
| 1777919535 | 24.44° C | 36% | 1002.9 hPa | 0 mm | - | 658 W/m² | - |
| 1777919233 | 24.44° C | 36% | 1003 hPa | 0 mm | - | 673 W/m² | - |
| 1777918930 | 24.44° C | 36% | 1003 hPa | 0 mm | - | 687 W/m² | - |
| 1777918627 | 24.44° C | 34% | 1003.2 hPa | 0 mm | - | 681 W/m² | - |
| 1777918324 | 23.89° C | 35% | 1003 hPa | 0 mm | - | 678 W/m² | - |
| 1777918023 | 23.89° C | 38% | 1003.2 hPa | 0 mm | - | 678 W/m² | - |
| 1777917722 | 23.89° C | 36% | 1003.2 hPa | 0 mm | - | 688 W/m² | - |
| 1777917418 | 23.89° C | 36% | 1003.2 hPa | 0 mm | - | 639 W/m² | - |
| 1777917115 | 24.44° C | 33% | 1003.5 hPa | 0 mm | - | 688 W/m² | - |
| 1777916813 | 24.44° C | 35% | 1003.4 hPa | 0 mm | - | 644 W/m² | - |
| 1777916510 | 24.44° C | 36% | 1003.4 hPa | 0 mm | - | 685 W/m² | - |
* Rain latest hour (hover to see other rain measurements)
** Current wind speed in m/s (hover to see current wind gust speed)